Location: Newark
(35.5580°S, 70.4960°W)
Time: 09:08:12
(UTC+00:00)

ISS - Visible Passes

Search period start: 12 December 2019 00:00
Search period end: 22 December 2019 00:00
Orbit: 411 x 421 km, 51.6° (Epoch: 13 December)

Date Brightness Start Highest point End Pass type
(mag) Time Alt. Az. Time Alt. Az. Time Alt. Az.
12 Dec -0.4 04:03:31 12° SSE 04:03:31 12° SSE 04:03:56 10° SSE visible
13 Dec -0.6 03:15:36 11° SSE 03:15:36 11° SSE 03:15:47 10° SSE visible
13 Dec -0.4 08:05:01 10° S 08:06:39 13° SSE 08:08:17 10° SE visible
14 Dec -1.4 02:26:23 19° SE 02:26:23 19° SE 02:27:28 10° SE visible
14 Dec -0.2 04:00:21 10° SW 04:01:26 11° SSW 04:02:29 10° S visible
14 Dec -2.2 08:52:06 10° SW 08:55:22 42° SE 08:58:36 10° ENE visible
15 Dec -3.9 01:32:11 10° NW 01:35:34 74° NE 01:39:00 10° SE visible
15 Dec -0.5 03:10:32 10° WSW 03:12:40 15° SSW 03:14:49 10° SSE visible
15 Dec -1.2 08:03:50 10° SSW 08:06:46 26° SSE 08:09:40 10° E visible
16 Dec -3.2 00:43:59 10° NNW 00:47:08 37° NE 00:50:21 10° ESE visible
16 Dec -1.1 02:21:12 10° W 02:23:58 22° SSW 02:26:46 10° SSE visible
16 Dec -0.6 07:15:43 10° SSW 07:18:05 17° SSE 07:20:27 10° ESE visible
16 Dec -3.7 08:51:44 10° SW 08:55:05 58° NW 08:58:24 10° NE visible
17 Dec -2.0 01:32:08 10° WNW 01:35:19 35° SW 01:38:32 10° SSE visible
17 Dec -0.1 06:27:51 10° S 06:29:20 12° SSE 06:30:48 10° SE visible
17 Dec -3.5 08:03:10 10° SW 08:06:36 72° SE 08:09:58 10° NE visible
18 Dec -3.2 00:43:21 10° WNW 00:46:44 64° SW 00:50:10 10° SE visible
18 Dec -0.1 02:22:46 10° SW 02:24:04 12° SSW 02:25:21 10° S visible
18 Dec -2.2 07:14:47 10° SW 07:18:01 39° SE 07:21:14 10° ENE visible
18 Dec -2.2 08:52:11 10° W 08:54:32 17° NW 08:56:51 10° N visible
19 Dec -0.5 01:33:01 10° WSW 01:35:16 16° SSW 01:37:32 10° SSE visible
19 Dec -1.3 06:26:31 10° SSW 06:29:22 24° SSE 06:32:13 10° E visible
19 Dec -3.1 08:03:03 10° WSW 08:06:09 32° NW 08:09:11 10° NNE visible
20 Dec -1.0 00:43:41 10° W 00:46:32 24° SSW 00:49:25 10° SSE visible
20 Dec -0.7 05:38:23 10° SSW 05:40:38 16° SSE 05:41:19 16° SE visible
21 Dec -0.4 04:50:31 10° S 04:51:49 12° SSE 04:52:15 11° SSE visible
